2018-083A (43662 NORAD) Tracking and Keplerian Element Data

This shows tracking and keplerian element data for the satellite.

Feedback or suggestion? Click here.




ElementValue
Catalog43662
Name2018-083A
Epoch Orbit275
Epoch Day320.17123667
Epoch Year2018
RAAN340.91
Inclination97.5281
Eccentricity0.0001546
Argument of Perigee87.9
Mean Anonmoly358.0192
Mean Motion15.1633122
Decay Rate3.84E-06
L11 43662U 18083A 18320.17123667 .00000384 00000-0 23257-4 0 9996
L22 43662 97.5281 340.9100 0001546 87.9000 358.0192 15.16331220 2758

Live tracking and technical data element details for 2018-083A (NORAD 43662). 2018-083A can be tracked NOW for your location showing map with azimuth and elevation plus other details from your city location.

Track the satellite on the map from your city or location and see movement details for azimuth, elevation, latitude, longitude, range, height, and movement on the map or in text.







IsCatalogInMostPopularTable: catalog: 43662, numindb: 7
Update: records affected: 1



GetName: 43662 2018-083A

Hit Count: updated at: Sat, 17 Nov 2018 03:22:49 GMT